Location: Paddlesworth
(51.1000°N, 1.1333°E)
Time: 13:56:07
(UTC+00:00)

Cosmos 1867 - Pass Details

Date: 11 May 2021
Orbit: 773 x 802 km, 65.0° (Epoch: 19 June)

Event Time Altitude Azimuth Distance (km) Brightness Sun altitude
Exits shadow 23:25:58 38° 144° (SE) 1,189 4.0 -20.5°
Maximum altitude 23:26:51 42° 120° (ESE) 1,133 4.1 -20.5°
Drops below altitude 10° 23:31:58 10° 51° (NE) 2,381 6.5 -20.6°
Sets 23:34:31 0° 44° (NE) 3,318 7.4 -20.7°
